Regional Weather Roundup
Issued by NWS Memphis, TN

Home | Current Version | Previous Version | Text Only | Print | Product List | Glossary On
Versions: 1 2 3 4 5 6 7 8 9 10 11 12 13 14 15 16 17 18 19 20 21 22 23 24 25 26 27 28 29 30 31 32 33 34 35 36 37 38 39 40 41 42 43 44 45 46 47 48 49 50
000
ASUS44 KMEG 050510
RWRMEG
MEMPHIS CWA HOURLY WEATHER ROUNDUP
NATIONAL WEATHER SERVICE MEMPHIS TN
1200 AM CDT TUE MAY 05 2015

...WEST TENNESSEE...

CITY           SKY/WX    TMP DP  RH WIND       PRES   REMARKS
MEMPHIS INTL   CLEAR     72  56  57 S8        30.18R
NWS MEMPHIS      N/A     69 N/A N/A MISG        N/A
JACKSON        CLEAR     60  53  77 SE3       30.20R
LEXINGTON      CLEAR     59  54  82 CALM      30.21R
DYERSBURG      CLEAR     66  43  42 SE5       30.20R
PARIS          CLEAR     63  48  59 S5        30.21R


...EASTERN ARKANSAS...

CITY           SKY/WX    TMP DP  RH WIND       PRES   REMARKS
JONESBORO      CLEAR     59  53  80 CALM      30.16R
WEST MEMPHIS   CLEAR     65  58  78 SE5       30.16R
BATESVILLE     CLEAR     63  54  72 CALM      30.15R
NEWPORT        CLEAR     67  52  58 SE3       30.17R
WALNUT RIDGE   CLEAR     64  48  55 SE8       30.15R
BLYTHEVILLE    CLEAR     68  52  56 S8        30.17R
SEARCY         CLEAR     61  57  87 CALM      30.16R
STUTTGART      MOCLDY    70  54  56 SE6       30.15R
PINE BLUFF     CLEAR     67  57  70 CALM      30.13S
MONTICELLO     CLEAR     70  60  70 CALM      30.13S


...NORTH MISSISSIPPI...

CITY           SKY/WX    TMP DP  RH WIND       PRES   REMARKS
TUPELO         CLEAR     65  54  67 CALM      30.20R
OXFORD         LGT RAIN  64  54  68 SE5       30.21R
OLIVE BRANCH   CLEAR     66  57  72 S6        30.18R
TUNICA         CLEAR     68  55  64 SE6       30.17R
CLARKSDALE     CLEAR     68  59  73 SE7       30.17R
CORINTH        CLEAR     61  55  82 CALM      30.20R
GREENWOOD      CLEAR     71  54  54 SE7       30.16S
STARKVILLE     FAIR      59  55  88 CALM      30.20S
GOLDEN TRIANGL   N/A     66  54  63 SE8       30.20R


...SOUTHEAST MISSOURI...

CITY           SKY/WX    TMP DP  RH WIND       PRES   REMARKS
WEST PLAINS    CLEAR     68  53  58 S6        30.18R
POPLAR BLUFF   CLEAR     61  54  77 N3        30.16R
CAPE GIRARDEAU CLEAR     63  54  72 SE6       30.17R


...NORTHWEST ALABAMA...

CITY           SKY/WX    TMP DP  RH WIND       PRES   REMARKS
MUSCLE SHOALS  CLEAR     61  54  77 SE5       30.24R


...MIDDLE TENNESSEE...

CITY           SKY/WX    TMP DP  RH WIND       PRES   REMARKS
NASHVILLE      CLEAR     64  55  72 S3        30.23S
CLARKSVILLE    CLEAR     63  54  72 CALM      30.21R
COLUMBIA       CLEAR     59  54  82 CALM      30.22S


...WESTERN KENTUCKY...

CITY           SKY/WX    TMP DP  RH WIND       PRES   REMARKS
PADUCAH        CLEAR     69  52  54 VRB3      30.18R
FORT CAMPBELL  CLEAR     68  53  58 S2        30.21R


...CENTRAL ARKANSAS...

CITY           SKY/WX    TMP DP  RH WIND       PRES   REMARKS
LITTLE ROCK    CLEAR     67  55  65 S5        30.14R


SKY/WX REPORTED AS FAIR MEANS FEW OR NO CLOUDS BELOW
12 THOUSAND FEET.



USA.gov is the U.S. government's official web portal to all federal, state and local government web resources and services.